Time,TemperatureF,DewpointF,PressureIn,WindDirection,WindDirectionDegrees,WindSpeedMPH,WindSpeedGustMPH,Humidity,HourlyPrecipIn,Conditions,Clouds,dailyrainin,SoftwareType,DateUTC
2013-05-24 00:01:00,44.4,42.0,29.94,NNW,337,0.0,0.0,91,0.00,,,0.00,WUHU21623XXSP,2013-05-24 07:01:00,
2013-05-24 00:06:00,44.4,42.0,29.94,NNW,337,0.0,0.0,91,0.00,,,0.00,WUHU21623XXSP,2013-05-24 07:06:00,
2013-05-24 00:11:00,44.4,42.0,29.94,NNW,337,0.0,0.0,91,0.00,,,0.00,WUHU21623XXSP,2013-05-24 07:11:00,
2013-05-24 00:16:00,44.4,42.0,29.94,NNW,337,0.0,0.0,91,0.00,,,0.00,WUHU21623XXSP,2013-05-24 07:16:00,
2013-05-24 00:21:00,44.4,42.0,29.94,NNW,337,0.0,0.0,91,0.00,,,0.00,WUHU21623XXSP,2013-05-24 07:21:00,
2013-05-24 00:26:00,44.2,41.8,29.94,NNW,337,0.0,0.0,91,0.00,,,0.00,WUHU21623XXSP,2013-05-24 07:26:00,
2013-05-24 00:31:00,44.2,41.8,29.93,NNW,337,0.0,0.0,91,0.00,,,0.00,WUHU21623XXSP,2013-05-24 07:31:00,
2013-05-24 00:36:00,44.2,41.8,29.93,NNW,337,0.0,0.0,91,0.00,,,0.00,WUHU21623XXSP,2013-05-24 07:36:00,
2013-05-24 00:41:00,44.2,41.8,29.93,NNW,337,0.0,0.0,91,0.00,,,0.00,WUHU21623XXSP,2013-05-24 07:41:00,
2013-05-24 00:46:00,44.1,41.6,29.94,NNW,337,0.0,0.0,91,0.00,,,0.00,WUHU21623XXSP,2013-05-24 07:46:00,
2013-05-24 00:51:00,44.1,41.6,29.94,NNW,337,0.0,0.0,91,0.00,,,0.00,WUHU21623XXSP,2013-05-24 07:51:00,
2013-05-24 00:56:00,43.9,41.5,29.94,NNW,337,0.0,0.0,91,0.00,,,0.00,WUHU21623XXSP,2013-05-24 07:56:00,
2013-05-24 01:01:00,43.9,41.5,29.94,NNW,337,0.0,0.0,91,0.00,,,0.00,WUHU21623XXSP,2013-05-24 08:01:00,
2013-05-24 01:06:00,43.7,41.3,29.94,NNW,337,0.0,0.0,91,0.00,,,0.00,WUHU21623XXSP,2013-05-24 08:06:00,
2013-05-24 01:11:00,43.5,41.1,29.94,NNW,337,0.0,0.0,91,0.00,,,0.00,WUHU21623XXSP,2013-05-24 08:11:00,
2013-05-24 01:16:00,43.5,41.4,29.94,NNW,337,0.0,0.0,92,0.00,,,0.00,WUHU21623XXSP,2013-05-24 08:16:00,
2013-05-24 01:21:00,43.3,40.9,29.94,West,270,0.0,0.0,91,0.00,,,0.00,WUHU21623XXSP,2013-05-24 08:21:00,
2013-05-24 01:26:00,43.3,40.9,29.94,West,270,0.0,0.0,91,0.00,,,0.00,WUHU21623XXSP,2013-05-24 08:26:00,
2013-05-24 01:31:00,43.2,40.7,29.94,West,270,0.0,0.0,91,0.00,,,0.00,WUHU21623XXSP,2013-05-24 08:31:00,
2013-05-24 01:36:00,43.0,40.5,29.94,West,270,0.0,0.0,91,0.00,,,0.00,WUHU21623XXSP,2013-05-24 08:36:00,
2013-05-24 01:41:00,43.0,40.5,29.94,West,270,0.0,0.0,91,0.00,,,0.00,WUHU21623XXSP,2013-05-24 08:41:00,
2013-05-24 01:46:00,43.0,40.5,29.94,West,270,0.0,0.0,91,0.00,,,0.00,WUHU21623XXSP,2013-05-24 08:46:00,
2013-05-24 01:51:00,43.0,40.5,29.94,West,270,0.0,0.0,91,0.00,,,0.00,WUHU21623XXSP,2013-05-24 08:51:00,
2013-05-24 01:56:00,43.0,40.5,29.94,West,270,0.0,0.0,91,0.00,,,0.00,WUHU21623XXSP,2013-05-24 08:56:00,
2013-05-24 02:01:00,42.6,40.5,29.94,West,270,0.0,0.0,91,0.00,,,0.00,WUHU21623XXSP,2013-05-24 09:01:00,
2013-05-24 02:06:00,42.6,40.2,29.94,West,270,0.0,0.0,91,0.00,,,0.00,WUHU21623XXSP,2013-05-24 09:06:00,
2013-05-24 02:11:00,42.6,40.2,29.94,West,270,0.0,0.0,91,0.00,,,0.00,WUHU21623XXSP,2013-05-24 09:11:00,
2013-05-24 02:16:00,42.4,40.0,29.94,West,270,0.0,0.0,91,0.00,,,0.00,WUHU21623XXSP,2013-05-24 09:16:00,
2013-05-24 02:21:00,42.4,40.0,29.94,West,270,0.0,0.0,91,0.00,,,0.00,WUHU21623XXSP,2013-05-24 09:21:00,
2013-05-24 02:26:00,42.4,40.0,29.94,West,270,0.0,0.0,91,0.00,,,0.00,WUHU21623XXSP,2013-05-24 09:26:00,
2013-05-24 02:31:00,42.4,40.0,29.94,West,270,0.0,0.0,91,0.00,,,0.00,WUHU21623XXSP,2013-05-24 09:31:00,
2013-05-24 02:36:00,42.4,40.0,29.94,West,270,0.0,0.0,91,0.00,,,0.00,WUHU21623XXSP,2013-05-24 09:36:00,
2013-05-24 02:41:00,42.4,40.0,29.94,West,270,0.0,0.0,91,0.00,,,0.00,WUHU21623XXSP,2013-05-24 09:41:00,
2013-05-24 02:46:00,42.4,40.3,29.94,West,270,0.0,0.0,92,0.00,,,0.00,WUHU21623XXSP,2013-05-24 09:46:00,
2013-05-24 02:51:00,42.4,40.3,29.94,West,270,0.0,0.0,92,0.00,,,0.00,WUHU21623XXSP,2013-05-24 09:51:00,
2013-05-24 02:56:00,42.4,40.3,29.94,West,270,0.0,0.0,92,0.00,,,0.00,WUHU21623XXSP,2013-05-24 09:56:00,
2013-05-24 03:01:00,42.1,39.9,29.94,SW,225,0.0,0.0,92,0.00,,,0.00,WUHU21623XXSP,2013-05-24 10:01:00,
2013-05-24 03:06:00,42.1,39.9,29.94,SW,225,0.0,0.0,92,0.00,,,0.00,WUHU21623XXSP,2013-05-24 10:06:00,
2013-05-24 03:11:00,41.9,39.7,29.94,SW,225,0.0,0.0,92,0.00,,,0.00,WUHU21623XXSP,2013-05-24 10:11:00,
2013-05-24 03:16:00,41.9,39.7,29.94,SW,225,0.0,0.0,92,0.00,,,0.00,WUHU21623XXSP,2013-05-24 10:16:00,
2013-05-24 03:21:00,41.9,39.7,29.94,SW,225,0.0,0.0,92,0.00,,,0.00,WUHU21623XXSP,2013-05-24 10:21:00,
2013-05-24 03:26:00,41.7,39.6,29.94,SW,225,0.0,0.0,92,0.00,,,0.00,WUHU21623XXSP,2013-05-24 10:26:00,
2013-05-24 03:31:00,41.7,39.6,29.94,SW,225,0.0,0.0,92,0.00,,,0.00,WUHU21623XXSP,2013-05-24 10:31:00,
2013-05-24 03:36:00,41.9,39.7,29.94,West,270,0.0,0.0,92,0.00,,,0.00,WUHU21623XXSP,2013-05-24 10:36:00,
2013-05-24 03:41:00,41.9,39.7,29.94,West,270,0.0,0.0,92,0.00,,,0.00,WUHU21623XXSP,2013-05-24 10:41:00,
2013-05-24 03:46:00,41.9,39.7,29.94,West,270,0.0,0.0,92,0.00,,,0.00,WUHU21623XXSP,2013-05-24 10:46:00,
2013-05-24 03:51:00,41.9,39.7,29.94,West,270,0.0,0.0,92,0.00,,,0.00,WUHU21623XXSP,2013-05-24 10:51:00,
2013-05-24 03:56:00,41.9,39.7,29.94,West,270,0.0,0.0,92,0.00,,,0.00,WUHU21623XXSP,2013-05-24 10:56:00,
2013-05-24 04:01:00,41.7,39.6,29.94,West,270,0.0,0.0,92,0.00,,,0.00,WUHU21623XXSP,2013-05-24 11:01:00,
2013-05-24 04:06:00,41.7,39.6,29.94,West,270,0.0,0.0,92,0.00,,,0.00,WUHU21623XXSP,2013-05-24 11:06:00,
2013-05-24 04:11:00,41.5,39.4,29.94,West,270,0.0,0.0,92,0.00,,,0.00,WUHU21623XXSP,2013-05-24 11:11:00,
2013-05-24 04:16:00,41.5,39.4,29.94,West,270,0.0,0.0,92,0.00,,,0.00,WUHU21623XXSP,2013-05-24 11:16:00,
2013-05-24 04:21:00,41.4,39.2,29.94,West,270,0.0,0.0,92,0.00,,,0.00,WUHU21623XXSP,2013-05-24 11:21:00,
2013-05-24 04:26:00,41.4,39.2,29.94,West,270,0.0,0.0,92,0.00,,,0.00,WUHU21623XXSP,2013-05-24 11:26:00,
2013-05-24 04:31:00,41.4,39.2,29.94,West,270,0.0,0.0,92,0.00,,,0.00,WUHU21623XXSP,2013-05-24 11:31:00,
2013-05-24 04:36:00,41.2,39.0,29.94,West,270,0.0,0.0,92,0.00,,,0.00,WUHU21623XXSP,2013-05-24 11:36:00,
2013-05-24 04:41:00,41.2,39.0,29.94,West,270,0.0,0.0,92,0.00,,,0.00,WUHU21623XXSP,2013-05-24 11:41:00,
2013-05-24 04:46:00,41.4,39.2,29.94,West,270,0.0,0.0,92,0.00,,,0.00,WUHU21623XXSP,2013-05-24 11:46:00,
2013-05-24 04:51:00,41.5,39.4,29.95,West,270,0.0,0.0,92,0.00,,,0.00,WUHU21623XXSP,2013-05-24 11:51:00,
2013-05-24 04:56:00,41.5,39.4,29.95,West,270,0.0,0.0,92,0.00,,,0.00,WUHU21623XXSP,2013-05-24 11:56:00,
2013-05-24 05:01:00,41.5,39.4,29.95,West,270,0.0,0.0,92,0.00,,,0.00,WUHU21623XXSP,2013-05-24 12:01:00,
2013-05-24 05:06:00,41.5,39.6,29.95,West,270,0.0,0.0,93,0.00,,,0.00,WUHU21623XXSP,2013-05-24 12:06:00,
2013-05-24 05:11:00,41.5,39.6,29.95,West,270,0.0,0.0,93,0.00,,,0.00,WUHU21623XXSP,2013-05-24 12:11:00,
2013-05-24 05:16:00,41.7,39.8,29.95,West,270,0.0,0.0,93,0.00,,,0.00,WUHU21623XXSP,2013-05-24 12:16:00,
2013-05-24 05:21:00,41.9,40.0,29.95,West,270,0.0,0.0,93,0.00,,,0.00,WUHU21623XXSP,2013-05-24 12:21:00,
2013-05-24 05:26:00,41.9,40.0,29.95,West,270,0.0,0.0,93,0.00,,,0.00,WUHU21623XXSP,2013-05-24 12:26:00,
2013-05-24 05:31:00,42.1,40.2,29.95,West,270,0.0,0.0,93,0.00,,,0.00,WUHU21623XXSP,2013-05-24 12:31:00,
2013-05-24 05:36:00,42.1,40.2,29.95,West,270,0.0,0.0,93,0.00,,,0.00,WUHU21623XXSP,2013-05-24 12:36:00,
2013-05-24 05:41:00,42.1,40.2,29.95,West,270,0.0,0.0,93,0.00,,,0.00,WUHU21623XXSP,2013-05-24 12:41:00,
2013-05-24 05:46:00,42.1,40.2,29.95,West,270,0.0,0.0,93,0.00,,,0.00,WUHU21623XXSP,2013-05-24 12:46:00,
2013-05-24 05:51:00,42.1,40.2,29.95,West,270,0.0,0.0,93,0.00,,,0.00,WUHU21623XXSP,2013-05-24 12:51:00,
2013-05-24 05:56:00,42.1,40.2,29.95,West,270,0.0,0.0,93,0.00,,,0.00,WUHU21623XXSP,2013-05-24 12:56:00,
2013-05-24 06:01:00,42.1,40.2,29.95,West,270,0.0,0.0,93,0.00,,,0.00,WUHU21623XXSP,2013-05-24 13:01:00,
2013-05-24 06:06:00,42.3,40.4,29.95,West,270,0.0,0.0,93,0.00,,,0.00,WUHU21623XXSP,2013-05-24 13:06:00,
2013-05-24 06:11:00,42.4,40.5,29.95,West,270,0.0,0.0,93,0.00,,,0.00,WUHU21623XXSP,2013-05-24 13:11:00,
2013-05-24 06:16:00,42.4,40.5,29.95,West,270,0.0,0.0,93,0.00,,,0.00,WUHU21623XXSP,2013-05-24 13:16:00,
2013-05-24 06:21:00,42.6,40.7,29.95,West,270,0.0,0.0,93,0.00,,,0.00,WUHU21623XXSP,2013-05-24 13:21:00,
2013-05-24 06:26:00,42.6,40.7,29.95,West,270,0.0,0.0,93,0.00,,,0.00,WUHU21623XXSP,2013-05-24 13:26:00,
2013-05-24 06:31:00,43.0,41.1,29.96,West,270,0.0,0.0,93,0.00,,,0.00,WUHU21623XXSP,2013-05-24 13:31:00,
2013-05-24 06:36:00,43.0,41.1,29.95,West,270,0.0,0.0,93,0.00,,,0.00,WUHU21623XXSP,2013-05-24 13:36:00,
2013-05-24 06:41:00,43.2,41.3,29.95,West,270,0.0,0.0,93,0.00,,,0.00,WUHU21623XXSP,2013-05-24 13:41:00,
2013-05-24 06:46:00,43.3,41.5,29.95,West,270,0.0,0.0,94,0.00,,,0.00,WUHU21623XXSP,2013-05-24 13:46:00,
2013-05-24 06:51:00,43.5,41.9,29.95,West,270,0.0,0.0,94,0.00,,,0.00,WUHU21623XXSP,2013-05-24 13:51:00,
2013-05-24 06:56:00,43.9,42.3,29.95,West,270,0.0,0.0,94,0.00,,,0.00,WUHU21623XXSP,2013-05-24 13:56:00,
2013-05-24 07:01:00,44.1,42.4,29.95,West,270,0.0,0.0,94,0.00,,,0.00,WUHU21623XXSP,2013-05-24 14:01:00,
2013-05-24 07:06:00,44.4,42.8,29.95,West,270,0.0,0.0,94,0.00,,,0.00,WUHU21623XXSP,2013-05-24 14:06:00,
2013-05-24 07:11:00,44.6,43.0,29.95,West,270,0.0,0.0,94,0.00,,,0.00,WUHU21623XXSP,2013-05-24 14:11:00,
2013-05-24 07:16:00,45.0,43.3,29.95,West,270,0.0,0.0,94,0.00,,,0.00,WUHU21623XXSP,2013-05-24 14:16:00,
2013-05-24 07:21:00,45.3,43.7,29.95,West,270,0.0,0.0,94,0.00,,,0.00,WUHU21623XXSP,2013-05-24 14:21:00,
2013-05-24 07:26:00,45.7,43.9,29.95,West,270,0.0,0.0,94,0.00,,,0.00,WUHU21623XXSP,2013-05-24 14:26:00,
2013-05-24 07:31:00,46.0,44.1,29.95,West,270,0.0,0.0,93,0.00,,,0.00,WUHU21623XXSP,2013-05-24 14:31:00,
2013-05-24 07:36:00,46.2,44.3,29.95,West,270,0.0,0.0,93,0.00,,,0.00,WUHU21623XXSP,2013-05-24 14:36:00,
2013-05-24 07:41:00,46.6,44.7,29.95,West,270,0.0,0.0,93,0.00,,,0.00,WUHU21623XXSP,2013-05-24 14:41:00,
2013-05-24 07:46:00,46.8,44.7,29.95,West,270,0.0,0.0,93,0.00,,,0.00,WUHU21623XXSP,2013-05-24 14:46:00,
2013-05-24 07:51:00,47.3,45.4,29.95,West,270,0.0,0.0,93,0.00,,,0.00,WUHU21623XXSP,2013-05-24 14:51:00,
2013-05-24 07:56:00,47.7,45.8,29.95,West,270,0.0,0.0,93,0.00,,,0.00,WUHU21623XXSP,2013-05-24 14:56:00,
2013-05-24 08:01:00,48.0,46.0,29.95,West,270,0.0,0.0,93,0.00,,,0.00,WUHU21623XXSP,2013-05-24 15:01:00,
2013-05-24 08:06:00,48.6,46.6,29.96,West,270,0.0,0.0,93,0.00,,,0.00,WUHU21623XXSP,2013-05-24 15:06:00,
2013-05-24 08:11:00,48.9,47.0,29.95,West,270,0.0,0.0,93,0.00,,,0.00,WUHU21623XXSP,2013-05-24 15:11:00,
2013-05-24 08:16:00,49.3,47.1,29.95,West,270,0.0,0.0,92,0.00,,,0.00,WUHU21623XXSP,2013-05-24 15:16:00,
2013-05-24 08:21:00,49.8,47.5,29.95,West,270,0.0,0.0,92,0.00,,,0.00,WUHU21623XXSP,2013-05-24 15:21:00,
2013-05-24 08:26:00,50.0,47.7,29.95,West,270,0.0,0.0,92,0.00,,,0.00,WUHU21623XXSP,2013-05-24 15:26:00,
2013-05-24 08:31:00,50.2,47.9,29.95,West,270,0.0,0.0,92,0.00,,,0.00,WUHU21623XXSP,2013-05-24 15:31:00,
2013-05-24 08:36:00,50.9,48.4,29.96,West,270,0.0,0.0,92,0.00,,,0.00,WUHU21623XXSP,2013-05-24 15:36:00,
2013-05-24 08:41:00,51.6,49.3,29.96,West,270,0.0,0.0,92,0.00,,,0.00,WUHU21623XXSP,2013-05-24 15:41:00,
2013-05-24 08:46:00,52.3,49.7,29.96,West,270,0.0,0.0,91,0.00,,,0.00,WUHU21623XXSP,2013-05-24 15:46:00,
2013-05-24 08:51:00,52.5,49.6,29.96,West,270,0.0,0.0,90,0.00,,,0.00,WUHU21623XXSP,2013-05-24 15:51:00,
2013-05-24 08:56:00,52.9,49.7,29.96,West,270,0.0,0.0,89,0.00,,,0.00,WUHU21623XXSP,2013-05-24 15:56:00,
2013-05-24 09:01:00,52.9,49.7,29.96,West,270,0.0,0.0,89,0.00,,,0.00,WUHU21623XXSP,2013-05-24 16:01:00,
2013-05-24 09:06:00,53.2,49.7,29.96,West,270,0.0,0.0,88,0.00,,,0.00,WUHU21623XXSP,2013-05-24 16:06:00,
2013-05-24 09:11:00,53.4,49.6,29.96,West,270,0.0,0.0,87,0.00,,,0.00,WUHU21623XXSP,2013-05-24 16:11:00,
2013-05-24 09:17:00,53.4,49.6,29.96,West,270,0.0,0.0,87,0.00,,,0.00,WUHU21623XXSP,2013-05-24 16:17:00,
2013-05-24 09:22:00,54.0,49.5,29.96,West,270,0.0,0.0,85,0.00,,,0.00,WUHU21623XXSP,2013-05-24 16:22:00,
2013-05-24 09:27:00,54.1,49.7,29.96,West,270,0.0,0.0,85,0.00,,,0.00,WUHU21623XXSP,2013-05-24 16:27:00,
2013-05-24 09:32:00,54.3,49.5,29.96,SW,225,0.0,0.0,84,0.00,,,0.00,WUHU21623XXSP,2013-05-24 16:32:00,
2013-05-24 09:37:00,54.5,49.7,29.96,SW,225,0.0,0.0,84,0.00,,,0.00,WUHU21623XXSP,2013-05-24 16:37:00,
2013-05-24 09:42:00,54.7,49.9,29.97,SSE,157,0.0,0.0,84,0.00,,,0.00,WUHU21623XXSP,2013-05-24 16:42:00,
2013-05-24 09:47:00,54.9,50.1,29.97,SE,135,0.0,0.0,84,0.00,,,0.00,WUHU21623XXSP,2013-05-24 16:47:00,
2013-05-24 09:52:00,54.9,49.1,29.97,WSW,247,0.0,0.0,81,0.00,,,0.00,WUHU21623XXSP,2013-05-24 16:52:00,
2013-05-24 09:57:00,54.7,49.3,29.97,West,270,0.0,0.0,82,0.00,,,0.00,WUHU21623XXSP,2013-05-24 16:57:00,
2013-05-24 10:02:00,54.7,49.3,29.97,West,270,0.0,0.0,82,0.00,,,0.00,WUHU21623XXSP,2013-05-24 17:02:00,
2013-05-24 10:07:00,55.0,49.6,29.97,NNW,337,0.0,0.0,82,0.00,,,0.00,WUHU21623XXSP,2013-05-24 17:07:00,
2013-05-24 10:12:00,54.7,48.9,29.97,WSW,247,0.0,0.0,81,0.00,,,0.00,WUHU21623XXSP,2013-05-24 17:12:00,
2013-05-24 10:17:00,54.9,49.1,29.97,West,270,0.0,0.0,81,0.00,,,0.00,WUHU21623XXSP,2013-05-24 17:17:00,
2013-05-24 10:22:00,55.0,49.3,29.98,West,270,0.0,0.0,81,0.00,,,0.00,WUHU21623XXSP,2013-05-24 17:22:00,
2013-05-24 10:27:00,55.0,49.3,29.98,West,270,0.0,0.0,80,0.00,,,0.00,WUHU21623XXSP,2013-05-24 17:27:00,
2013-05-24 10:32:00,55.0,49.0,29.97,WSW,247,0.0,0.0,79,0.00,,,0.00,WUHU21623XXSP,2013-05-24 17:32:00,
2013-05-24 10:37:00,54.9,48.6,29.97,WSW,247,0.0,0.0,79,0.00,,,0.00,WUHU21623XXSP,2013-05-24 17:37:00,
2013-05-24 10:42:00,55.0,48.6,29.97,WSW,247,0.0,0.0,79,0.00,,,0.00,WUHU21623XXSP,2013-05-24 17:42:00,
2013-05-24 10:47:00,55.2,48.8,29.97,West,270,0.0,0.0,79,0.00,,,0.00,WUHU21623XXSP,2013-05-24 17:47:00,
2013-05-24 10:52:00,55.2,48.8,29.97,SSE,157,0.0,0.0,79,0.00,,,0.00,WUHU21623XXSP,2013-05-24 17:52:00,
2013-05-24 10:57:00,55.8,49.1,29.98,SSE,157,0.0,0.0,79,0.00,,,0.00,WUHU21623XXSP,2013-05-24 17:57:00,
2013-05-24 11:02:00,55.9,49.5,29.98,SW,225,0.0,0.0,79,0.00,,,0.00,WUHU21623XXSP,2013-05-24 18:02:00,
2013-05-24 11:07:00,55.9,49.1,29.98,West,270,0.0,0.0,78,0.00,,,0.00,WUHU21623XXSP,2013-05-24 18:07:00,
2013-05-24 11:12:00,55.9,48.8,29.98,West,270,0.0,0.0,76,0.00,,,0.00,WUHU21623XXSP,2013-05-24 18:12:00,
2013-05-24 11:17:00,55.8,48.6,29.98,SW,225,0.0,0.0,77,0.00,,,0.00,WUHU21623XXSP,2013-05-24 18:17:00,
2013-05-24 11:22:00,55.6,48.4,29.98,SSW,202,0.0,0.0,77,0.00,,,0.00,WUHU21623XXSP,2013-05-24 18:22:00,
2013-05-24 11:27:00,55.8,48.3,29.98,SW,225,0.0,0.0,76,0.00,,,0.00,WUHU21623XXSP,2013-05-24 18:27:00,
2013-05-24 11:32:00,55.8,48.6,29.98,North,0,0.0,0.0,77,0.00,,,0.00,WUHU21623XXSP,2013-05-24 18:32:00,
2013-05-24 11:37:00,56.1,48.9,29.97,East,90,0.0,0.0,77,0.00,,,0.00,WUHU21623XXSP,2013-05-24 18:37:00,
2013-05-24 11:42:00,56.3,48.8,29.98,SSE,157,0.0,0.0,76,0.00,,,0.00,WUHU21623XXSP,2013-05-24 18:42:00,
2013-05-24 11:47:00,56.8,49.3,29.97,NNW,337,0.0,0.0,76,0.00,,,0.00,WUHU21623XXSP,2013-05-24 18:47:00,
2013-05-24 11:52:00,57.4,49.5,29.97,North,0,0.0,0.0,75,0.00,,,0.00,WUHU21623XXSP,2013-05-24 18:52:00,
2013-05-24 11:57:00,57.7,49.5,29.97,North,0,0.0,0.0,74,0.00,,,0.00,WUHU21623XXSP,2013-05-24 18:57:00,
2013-05-24 12:02:00,57.6,48.9,29.97,North,0,0.0,0.0,73,0.00,,,0.00,WUHU21623XXSP,2013-05-24 19:02:00,
2013-05-24 12:07:00,57.4,48.7,29.97,North,0,0.0,0.0,73,0.00,,,0.00,WUHU21623XXSP,2013-05-24 19:07:00,
2013-05-24 12:12:00,57.4,48.7,29.97,NNW,337,0.0,0.0,73,0.00,,,0.00,WUHU21623XXSP,2013-05-24 19:12:00,
2013-05-24 12:17:00,57.0,48.7,29.97,South,180,0.0,0.0,74,0.00,,,0.00,WUHU21623XXSP,2013-05-24 19:17:00,
2013-05-24 12:22:00,56.8,48.2,29.98,South,180,0.0,0.0,73,0.00,,,0.00,WUHU21623XXSP,2013-05-24 19:22:00,
2013-05-24 12:27:00,56.8,48.6,29.98,South,180,0.0,0.0,74,0.00,,,0.00,WUHU21623XXSP,2013-05-24 19:27:00,
2013-05-24 12:32:00,56.7,48.1,29.98,South,180,0.0,0.0,73,0.00,,,0.00,WUHU21623XXSP,2013-05-24 19:32:00,
2013-05-24 12:37:00,56.5,48.2,29.98,South,180,0.0,0.0,74,0.00,,,0.00,WUHU21623XXSP,2013-05-24 19:37:00,
2013-05-24 12:42:00,56.5,48.6,29.98,South,180,0.0,0.0,75,0.00,,,0.00,WUHU21623XXSP,2013-05-24 19:42:00,
2013-05-24 12:47:00,56.5,48.9,29.98,South,180,0.0,0.0,76,0.00,,,0.00,WUHU21623XXSP,2013-05-24 19:47:00,
2013-05-24 12:52:00,56.5,48.9,29.98,South,180,0.0,0.0,76,0.00,,,0.00,WUHU21623XXSP,2013-05-24 19:52:00,
2013-05-24 12:57:00,56.5,48.9,29.98,South,180,0.0,0.0,76,0.00,,,0.00,WUHU21623XXSP,2013-05-24 19:57:00,
2013-05-24 13:02:00,56.5,49.3,29.98,South,180,0.0,0.0,77,0.00,,,0.00,WUHU21623XXSP,2013-05-24 20:02:00,
2013-05-24 13:07:00,56.5,49.3,29.98,South,180,0.0,0.0,77,0.00,,,0.00,WUHU21623XXSP,2013-05-24 20:07:00,
2013-05-24 13:12:00,56.3,48.8,29.97,South,180,0.0,0.0,76,0.00,,,0.00,WUHU21623XXSP,2013-05-24 20:12:00,
2013-05-24 13:17:00,56.3,49.1,29.98,SSE,157,0.0,0.0,77,0.00,,,0.00,WUHU21623XXSP,2013-05-24 20:17:00,
2013-05-24 13:22:00,56.3,49.1,29.97,South,180,0.0,0.0,77,0.00,,,0.00,WUHU21623XXSP,2013-05-24 20:22:00,
2013-05-24 13:27:00,56.5,49.3,29.98,South,180,0.0,0.0,77,0.00,,,0.00,WUHU21623XXSP,2013-05-24 20:27:00,
2013-05-24 13:32:00,56.8,49.3,29.97,SSW,202,0.0,0.0,76,0.00,,,0.00,WUHU21623XXSP,2013-05-24 20:32:00,
2013-05-24 13:37:00,56.8,49.6,29.98,WSW,247,0.0,0.0,77,0.00,,,0.00,WUHU21623XXSP,2013-05-24 20:37:00,
2013-05-24 13:42:00,57.0,49.5,29.97,WSW,247,0.0,0.0,76,0.00,,,0.00,WUHU21623XXSP,2013-05-24 20:42:00,
2013-05-24 13:47:00,57.0,49.1,29.98,WSW,247,0.0,0.0,75,0.00,,,0.00,WUHU21623XXSP,2013-05-24 20:47:00,
2013-05-24 13:52:00,57.4,49.1,29.98,WSW,247,0.0,0.0,74,0.00,,,0.00,WUHU21623XXSP,2013-05-24 20:52:00,
2013-05-24 13:57:00,57.4,49.8,29.97,WSW,247,0.0,0.0,76,0.00,,,0.00,WUHU21623XXSP,2013-05-24 20:57:00,
2013-05-24 14:02:00,57.7,49.5,29.98,West,270,0.0,0.0,74,0.00,,,0.00,WUHU21623XXSP,2013-05-24 21:02:00,
2013-05-24 14:07:00,57.7,49.6,29.98,West,270,0.0,0.0,74,0.00,,,0.00,WUHU21623XXSP,2013-05-24 21:07:00,
2013-05-24 14:12:00,57.9,49.5,29.98,West,270,0.0,0.0,74,0.00,,,0.00,WUHU21623XXSP,2013-05-24 21:12:00,
2013-05-24 14:17:00,58.3,49.3,29.98,NNE,22,0.0,0.0,72,0.00,,,0.00,WUHU21623XXSP,2013-05-24 21:17:00,
2013-05-24 14:22:00,58.6,50.0,29.98,South,180,0.0,0.0,73,0.00,,,0.00,WUHU21623XXSP,2013-05-24 21:22:00,
2013-05-24 14:27:00,58.8,49.8,29.98,WSW,247,0.0,0.0,72,0.00,,,0.00,WUHU21623XXSP,2013-05-24 21:27:00,
2013-05-24 14:32:00,58.8,49.8,29.98,WNW,292,0.0,0.0,72,0.00,,,0.00,WUHU21623XXSP,2013-05-24 21:32:00,
2013-05-24 14:37:00,58.6,49.8,29.98,WSW,247,0.0,0.0,72,0.00,,,0.00,WUHU21623XXSP,2013-05-24 21:37:00,
2013-05-24 14:42:00,58.6,49.6,29.98,WSW,247,0.0,0.0,72,0.00,,,0.00,WUHU21623XXSP,2013-05-24 21:42:00,
2013-05-24 14:47:00,58.6,50.0,29.98,West,270,0.0,0.0,73,0.00,,,0.00,WUHU21623XXSP,2013-05-24 21:47:00,
2013-05-24 14:52:00,58.6,49.6,29.98,SSW,202,0.0,0.0,72,0.00,,,0.00,WUHU21623XXSP,2013-05-24 21:52:00,
2013-05-24 14:57:00,58.5,49.8,29.98,WSW,247,0.0,0.0,73,0.00,,,0.00,WUHU21623XXSP,2013-05-24 21:57:00,
2013-05-24 15:02:00,58.3,49.6,29.99,WSW,247,0.0,0.0,73,0.00,,,0.00,WUHU21623XXSP,2013-05-24 22:02:00,
2013-05-24 15:07:00,57.9,49.3,29.99,SW,225,0.0,0.0,73,0.00,,,0.00,WUHU21623XXSP,2013-05-24 22:07:00,
2013-05-24 15:12:00,57.9,49.3,29.98,SW,225,0.0,0.0,73,0.00,,,0.00,WUHU21623XXSP,2013-05-24 22:12:00,
2013-05-24 15:17:00,57.6,48.6,29.99,SW,225,0.0,0.0,72,0.00,,,0.00,WUHU21623XXSP,2013-05-24 22:17:00,
2013-05-24 15:22:00,57.4,48.4,29.98,SW,225,0.0,0.0,72,0.00,,,0.00,WUHU21623XXSP,2013-05-24 22:22:00,
2013-05-24 15:27:00,57.0,48.7,29.98,SW,225,0.0,0.0,74,0.00,,,0.00,WUHU21623XXSP,2013-05-24 22:27:00,
2013-05-24 15:32:00,57.0,48.7,29.98,SW,225,0.0,0.0,75,0.00,,,0.00,WUHU21623XXSP,2013-05-24 22:32:00,
2013-05-24 15:37:00,57.0,49.1,29.98,SW,225,0.0,0.0,76,0.00,,,0.00,WUHU21623XXSP,2013-05-24 22:37:00,
2013-05-24 15:42:00,56.8,49.3,29.98,SW,225,0.0,0.0,76,0.00,,,0.00,WUHU21623XXSP,2013-05-24 22:42:00,
2013-05-24 15:47:00,56.8,49.3,29.99,SW,225,0.0,0.0,76,0.00,,,0.00,WUHU21623XXSP,2013-05-24 22:47:00,
2013-05-24 15:52:00,56.8,48.9,29.99,West,270,0.0,0.0,75,0.00,,,0.00,WUHU21623XXSP,2013-05-24 22:52:00,
2013-05-24 15:57:00,56.8,48.9,29.99,NW,315,0.0,0.0,75,0.00,,,0.00,WUHU21623XXSP,2013-05-24 22:57:00,
2013-05-24 16:02:00,57.4,49.1,29.99,South,180,0.0,0.0,74,0.00,,,0.00,WUHU21623XXSP,2013-05-24 23:02:00,
2013-05-24 16:07:00,57.9,49.6,29.99,North,0,0.0,0.0,74,0.00,,,0.00,WUHU21623XXSP,2013-05-24 23:07:00,
2013-05-24 16:12:00,58.3,49.8,29.99,North,0,0.0,0.0,73,0.00,,,0.00,WUHU21623XXSP,2013-05-24 23:12:00,
2013-05-24 16:17:00,58.3,49.3,29.99,North,0,0.0,0.0,72,0.00,,,0.00,WUHU21623XXSP,2013-05-24 23:17:00,
2013-05-24 16:22:00,58.5,49.5,29.98,NW,315,0.0,0.0,72,0.00,,,0.00,WUHU21623XXSP,2013-05-24 23:22:00,
2013-05-24 16:27:00,58.6,49.6,29.98,North,0,0.0,0.0,72,0.00,,,0.00,WUHU21623XXSP,2013-05-24 23:27:00,
2013-05-24 16:32:00,58.5,48.3,29.98,North,0,0.0,0.0,69,0.00,,,0.00,WUHU21623XXSP,2013-05-24 23:32:00,
2013-05-24 16:37:00,58.5,49.1,29.98,NE,45,0.0,0.0,71,0.00,,,0.00,WUHU21623XXSP,2013-05-24 23:37:00,
2013-05-24 16:42:00,58.5,49.1,29.98,NE,45,0.0,0.0,71,0.00,,,0.00,WUHU21623XXSP,2013-05-24 23:42:00,
2013-05-24 16:47:00,58.8,49.1,29.98,NE,45,0.0,0.0,70,0.00,,,0.00,WUHU21623XXSP,2013-05-24 23:47:00,
2013-05-24 16:52:00,59.4,49.6,29.98,SSE,157,0.0,0.0,70,0.00,,,0.00,WUHU21623XXSP,2013-05-24 23:52:00,
2013-05-24 16:57:00,59.7,49.6,29.98,South,180,0.0,0.0,69,0.00,,,0.00,WUHU21623XXSP,2013-05-24 23:57:00,
2013-05-24 17:02:00,59.7,49.6,29.98,South,180,0.0,0.0,69,0.00,,,0.00,WUHU21623XXSP,2013-05-25 00:02:00,
2013-05-24 17:07:00,59.5,49.4,29.98,NNE,22,0.0,0.0,69,0.00,,,0.00,WUHU21623XXSP,2013-05-25 00:07:00,
2013-05-24 17:12:00,59.7,49.2,29.98,SSW,202,0.0,0.0,68,0.00,,,0.00,WUHU21623XXSP,2013-05-25 00:12:00,
2013-05-24 17:17:00,59.7,49.2,29.98,WSW,247,0.0,0.0,68,0.00,,,0.00,WUHU21623XXSP,2013-05-25 00:17:00,
2013-05-24 17:22:00,59.7,49.2,29.98,ESE,112,0.0,0.0,68,0.00,,,0.00,WUHU21623XXSP,2013-05-25 00:22:00,
2013-05-24 17:27:00,59.7,49.2,29.98,South,180,0.0,0.0,68,0.00,,,0.00,WUHU21623XXSP,2013-05-25 00:27:00,
2013-05-24 17:32:00,59.9,48.9,29.98,ESE,112,0.0,0.0,67,0.00,,,0.00,WUHU21623XXSP,2013-05-25 00:32:00,
2013-05-24 17:37:00,59.7,49.6,29.98,ESE,112,0.0,0.0,69,0.00,,,0.00,WUHU21623XXSP,2013-05-25 00:37:00,
2013-05-24 17:42:00,59.4,48.8,29.98,SE,135,0.0,0.0,68,0.00,,,0.00,WUHU21623XXSP,2013-05-25 00:42:00,
2013-05-24 17:47:00,58.8,48.3,29.98,SE,135,0.0,0.0,68,0.00,,,0.00,WUHU21623XXSP,2013-05-25 00:47:00,
2013-05-24 17:52:00,58.6,48.1,29.98,SSE,157,0.0,0.0,68,0.00,,,0.00,WUHU21623XXSP,2013-05-25 00:52:00,
2013-05-24 17:57:00,58.3,48.1,29.97,SSE,157,0.0,0.0,69,0.00,,,0.00,WUHU21623XXSP,2013-05-25 00:57:00,
2013-05-24 18:02:00,58.3,48.6,29.98,NNW,337,0.0,0.0,70,0.00,,,0.00,WUHU21623XXSP,2013-05-25 01:02:00,
2013-05-24 18:07:00,58.1,48.4,29.98,NE,45,0.0,0.0,70,0.00,,,0.00,WUHU21623XXSP,2013-05-25 01:07:00,
2013-05-24 18:12:00,57.9,48.9,29.97,NE,45,0.0,0.0,72,0.00,,,0.00,WUHU21623XXSP,2013-05-25 01:12:00,
2013-05-24 18:17:00,57.7,49.1,29.97,NE,45,0.0,0.0,73,0.00,,,0.00,WUHU21623XXSP,2013-05-25 01:17:00,
2013-05-24 18:22:00,57.7,49.5,29.97,NE,45,0.0,0.0,74,0.00,,,0.00,WUHU21623XXSP,2013-05-25 01:22:00,
2013-05-24 18:27:00,57.4,49.1,29.98,NE,45,0.0,0.0,74,0.00,,,0.00,WUHU21623XXSP,2013-05-25 01:27:00,
2013-05-24 18:32:00,57.0,48.7,29.98,NE,45,0.0,0.0,74,0.00,,,0.00,WUHU21623XXSP,2013-05-25 01:32:00,
2013-05-24 18:37:00,57.0,49.1,29.98,NE,45,0.0,0.0,75,0.00,,,0.00,WUHU21623XXSP,2013-05-25 01:37:00,
2013-05-24 18:42:00,57.0,49.1,29.98,NE,45,0.0,0.0,75,0.00,,,0.00,WUHU21623XXSP,2013-05-25 01:42:00,
2013-05-24 18:47:00,57.0,49.1,29.98,NE,45,0.0,0.0,75,0.00,,,0.00,WUHU21623XXSP,2013-05-25 01:47:00,
2013-05-24 18:52:00,57.0,48.7,29.98,NNE,22,0.0,0.0,74,0.00,,,0.00,WUHU21623XXSP,2013-05-25 01:52:00,
2013-05-24 18:57:00,57.0,49.1,29.98,NNE,22,0.0,0.0,75,0.00,,,0.00,WUHU21623XXSP,2013-05-25 01:57:00,
2013-05-24 19:02:00,57.0,49.5,29.98,NNE,22,0.0,0.0,74,0.00,,,0.00,WUHU21623XXSP,2013-05-25 02:02:00,
2013-05-24 19:07:00,57.0,48.7,29.98,NNE,22,0.0,0.0,74,0.00,,,0.00,WUHU21623XXSP,2013-05-25 02:07:00,
2013-05-24 19:12:00,57.0,49.1,29.98,NNE,22,0.0,0.0,75,0.00,,,0.00,WUHU21623XXSP,2013-05-25 02:12:00,
2013-05-24 19:17:00,57.0,48.7,29.98,NNE,22,0.0,0.0,74,0.00,,,0.00,WUHU21623XXSP,2013-05-25 02:17:00,
2013-05-24 19:22:00,57.0,48.7,29.98,NNE,22,0.0,0.0,74,0.00,,,0.00,WUHU21623XXSP,2013-05-25 02:22:00,
2013-05-24 19:27:00,56.8,48.6,29.98,NNE,22,0.0,0.0,74,0.00,,,0.00,WUHU21623XXSP,2013-05-25 02:27:00,
2013-05-24 19:32:00,56.8,48.6,29.98,NNE,22,0.0,0.0,74,0.00,,,0.00,WUHU21623XXSP,2013-05-25 02:32:00,
2013-05-24 19:37:00,56.8,48.9,29.98,NNE,22,0.0,0.0,75,0.00,,,0.00,WUHU21623XXSP,2013-05-25 02:37:00,
2013-05-24 19:42:00,56.5,48.9,29.98,NNE,22,0.0,0.0,76,0.00,,,0.00,WUHU21623XXSP,2013-05-25 02:42:00,
2013-05-24 19:47:00,56.5,48.6,29.97,NNE,22,0.0,0.0,75,0.00,,,0.00,WUHU21623XXSP,2013-05-25 02:47:00,
2013-05-24 19:52:00,56.3,48.4,29.98,NNE,22,0.0,0.0,75,0.00,,,0.00,WUHU21623XXSP,2013-05-25 02:52:00,
2013-05-24 19:57:00,55.9,48.1,29.98,NNE,22,0.0,0.0,75,0.00,,,0.00,WUHU21623XXSP,2013-05-25 02:57:00,
2013-05-24 20:02:00,55.9,48.4,29.98,NNE,22,0.0,0.0,76,0.00,,,0.00,WUHU21623XXSP,2013-05-25 03:02:00,
2013-05-24 20:07:00,55.6,48.4,29.98,NNE,22,0.0,0.0,77,0.00,,,0.00,WUHU21623XXSP,2013-05-25 03:07:00,
2013-05-24 20:12:00,55.2,48.1,29.98,NNE,22,0.0,0.0,77,0.00,,,0.00,WUHU21623XXSP,2013-05-25 03:12:00,
2013-05-24 20:17:00,55.2,48.1,29.97,NNE,22,0.0,0.0,77,0.00,,,0.00,WUHU21623XXSP,2013-05-25 03:17:00,
2013-05-24 20:22:00,55.0,48.3,29.98,NNE,22,0.0,0.0,78,0.00,,,0.00,WUHU21623XXSP,2013-05-25 03:22:00,
2013-05-24 20:27:00,54.7,48.3,29.98,NNE,22,0.0,0.0,79,0.00,,,0.00,WUHU21623XXSP,2013-05-25 03:27:00,
2013-05-24 20:32:00,54.5,48.1,29.98,NNE,22,0.0,0.0,79,0.00,,,0.00,WUHU21623XXSP,2013-05-25 03:32:00,
2013-05-24 20:37:00,54.3,48.5,29.98,NNE,22,0.0,0.0,80,0.00,,,0.00,WUHU21623XXSP,2013-05-25 03:37:00,
2013-05-24 20:42:00,54.3,48.6,29.98,NNE,22,0.0,0.0,81,0.00,,,0.00,WUHU21623XXSP,2013-05-25 03:42:00,
2013-05-24 20:47:00,54.1,48.5,29.98,North,0,0.0,0.0,81,0.00,,,0.00,WUHU21623XXSP,2013-05-25 03:47:00,
2013-05-24 20:52:00,54.0,48.6,29.98,North,0,0.0,0.0,82,0.00,,,0.00,WUHU21623XXSP,2013-05-25 03:52:00,
2013-05-24 20:57:00,53.8,48.4,29.98,North,0,0.0,0.0,82,0.00,,,0.00,WUHU21623XXSP,2013-05-25 03:57:00,
2013-05-24 21:01:00,53.6,48.3,29.98,North,0,0.0,0.0,82,0.00,,,0.00,WUHU21623XXSP,2013-05-25 04:01:00,
2013-05-24 21:06:00,53.2,47.9,29.98,North,0,0.0,0.0,82,0.00,,,0.00,WUHU21623XXSP,2013-05-25 04:06:00,
2013-05-24 21:11:00,53.2,47.9,29.99,North,0,0.0,0.0,82,0.00,,,0.00,WUHU21623XXSP,2013-05-25 04:11:00,
2013-05-24 21:16:00,52.9,47.9,29.99,North,0,0.0,0.0,83,0.00,,,0.00,WUHU21623XXSP,2013-05-25 04:16:00,
2013-05-24 21:21:00,52.7,47.7,29.99,North,0,0.0,0.0,83,0.00,,,0.00,WUHU21623XXSP,2013-05-25 04:21:00,
2013-05-24 21:26:00,52.5,47.5,29.99,North,0,0.0,0.0,83,0.00,,,0.00,WUHU21623XXSP,2013-05-25 04:26:00,
2013-05-24 21:31:00,52.3,47.3,30.00,North,0,0.0,0.0,83,0.00,,,0.00,WUHU21623XXSP,2013-05-25 04:31:00,
2013-05-24 21:36:00,52.2,47.1,30.00,North,0,0.0,0.0,83,0.00,,,0.00,WUHU21623XXSP,2013-05-25 04:36:00,
2013-05-24 21:41:00,52.0,47.0,30.00,North,0,0.0,0.0,83,0.00,,,0.00,WUHU21623XXSP,2013-05-25 04:41:00,
2013-05-24 21:46:00,52.0,47.0,30.00,North,0,0.0,0.0,83,0.00,,,0.00,WUHU21623XXSP,2013-05-25 04:46:00,
2013-05-24 21:51:00,51.8,47.0,30.00,North,0,0.0,0.0,84,0.00,,,0.00,WUHU21623XXSP,2013-05-25 04:51:00,
2013-05-24 21:56:00,51.8,47.1,30.00,North,0,0.0,0.0,84,0.00,,,0.00,WUHU21623XXSP,2013-05-25 04:56:00,
2013-05-24 22:01:00,51.6,46.9,30.00,North,0,0.0,0.0,84,0.00,,,0.00,WUHU21623XXSP,2013-05-25 05:01:00,
2013-05-24 22:06:00,51.6,46.9,30.00,North,0,0.0,0.0,85,0.00,,,0.00,WUHU21623XXSP,2013-05-25 05:06:00,
2013-05-24 22:11:00,51.6,47.2,30.00,North,0,0.0,0.0,85,0.00,,,0.00,WUHU21623XXSP,2013-05-25 05:11:00,
2013-05-24 22:16:00,51.6,47.2,30.00,North,0,0.0,0.0,85,0.00,,,0.00,WUHU21623XXSP,2013-05-25 05:16:00,
2013-05-24 22:21:00,51.6,47.2,30.00,North,0,0.0,0.0,85,0.00,,,0.00,WUHU21623XXSP,2013-05-25 05:21:00,
2013-05-24 22:26:00,51.6,47.2,30.00,North,0,0.0,0.0,85,0.00,,,0.00,WUHU21623XXSP,2013-05-25 05:26:00,
2013-05-24 22:31:00,51.6,47.2,30.00,North,0,0.0,0.0,85,0.00,,,0.00,WUHU21623XXSP,2013-05-25 05:31:00,
2013-05-24 22:36:00,51.6,47.2,30.00,North,0,0.0,0.0,85,0.00,,,0.00,WUHU21623XXSP,2013-05-25 05:36:00,
2013-05-24 22:41:00,51.6,47.2,30.00,North,0,0.0,0.0,85,0.00,,,0.00,WUHU21623XXSP,2013-05-25 05:41:00,
2013-05-24 22:46:00,51.6,47.5,30.00,North,0,0.0,0.0,86,0.00,,,0.00,WUHU21623XXSP,2013-05-25 05:46:00,
2013-05-24 22:51:00,51.6,47.5,30.00,North,0,0.0,0.0,86,0.00,,,0.00,WUHU21623XXSP,2013-05-25 05:51:00,
2013-05-24 22:56:00,51.6,47.5,30.00,North,0,0.0,0.0,86,0.00,,,0.00,WUHU21623XXSP,2013-05-25 05:56:00,
2013-05-24 23:01:00,51.4,47.3,30.00,NNW,337,0.0,0.0,86,0.00,,,0.00,WUHU21623XXSP,2013-05-25 06:01:00,
2013-05-24 23:06:00,51.4,47.3,30.00,WNW,292,0.0,0.0,86,0.00,,,0.00,WUHU21623XXSP,2013-05-25 06:06:00,
2013-05-24 23:11:00,51.4,47.3,30.00,SW,225,0.0,0.0,86,0.00,,,0.00,WUHU21623XXSP,2013-05-25 06:11:00,
2013-05-24 23:16:00,51.4,47.3,30.00,SW,225,0.0,0.0,86,0.00,,,0.00,WUHU21623XXSP,2013-05-25 06:16:00,
2013-05-24 23:21:00,51.4,47.3,30.00,SW,225,0.0,0.0,86,0.00,,,0.00,WUHU21623XXSP,2013-05-25 06:21:00,
2013-05-24 23:26:00,51.4,47.3,30.00,SW,225,0.0,0.0,86,0.00,,,0.00,WUHU21623XXSP,2013-05-25 06:26:00,
2013-05-24 23:31:00,51.4,47.3,30.00,SW,225,0.0,0.0,86,0.00,,,0.00,WUHU21623XXSP,2013-05-25 06:31:00,
2013-05-24 23:36:00,51.3,47.2,30.00,SW,225,0.0,0.0,86,0.00,,,0.00,WUHU21623XXSP,2013-05-25 06:36:00,
2013-05-24 23:41:00,51.4,47.3,30.00,South,180,0.0,0.0,86,0.00,,,0.00,WUHU21623XXSP,2013-05-25 06:41:00,
2013-05-24 23:46:00,51.3,47.2,30.00,South,180,0.0,0.0,86,0.00,,,0.00,WUHU21623XXSP,2013-05-25 06:46:00,
2013-05-24 23:51:00,51.3,47.2,30.00,South,180,0.0,0.0,86,0.00,,,0.00,WUHU21623XXSP,2013-05-25 06:51:00,
2013-05-24 23:56:00,51.3,47.2,30.01,SE,135,0.0,0.0,86,0.00,,,0.00,WUHU21623XXSP,2013-05-25 06:56:00,